Location: Hyderabad
(17.3833°N, 78.4667°E)
Time: 01:56:56
(UTC+05:30)

Daily predictions for brighter satellites

Satellite Brightness Start Highest point End
(mag) Time Altitude Azimuth Time Altitude Azimuth Time Altitude Azimuth
Cosmos 2278 Rocket 4.1 02:23:43 25° NNE 02:23:43 25° NNE 02:25:59 10° NNE
Resurs 1-4 Rocket 3.8 02:32:39 10° NNE 02:35:18 29° NE 02:35:18 29° NE
H-2A R/B 3.8 02:41:17 56° WNW 02:43:49 88° NNE 03:46:08 10° SE
ARIANE 5 R/B 4.5 02:39:06 10° NNE 02:40:57 23° NNE 02:40:57 23° NNE
Okean O Rocket 4.3 02:43:00 10° NE 02:44:22 15° ENE 02:44:22 15° ENE
USA 234 3.6 03:05:28 10° SE 03:11:52 61° NE 03:18:16 10° NNW
Cosmos 1140 Rocket 4.3 03:07:46 10° N 03:11:50 48° NE 03:11:50 48° NE
Cosmos 2061 Rocket 4.2 03:19:24 61° SE 03:20:15 69° E 03:26:33 10° N
Atlas Centaur 2 3.3 03:21:01 50° S 03:22:05 53° SSE 03:30:15 10° ENE
Cosmos 1850 Rocket 4.5 03:21:43 10° N 03:26:53 58° ENE 03:28:09 45° SE
Cosmos 1741 Rocket 4.5 03:23:53 10° N 03:29:02 58° ENE 03:30:26 43° SE
SL-16 R/B 2.4 03:32:27 71° SSW 03:33:06 79° WSW 03:39:21 10° NNW
CZ-4B R/B 3.9 03:30:06 10° NNE 03:34:22 44° E 03:34:32 44° ESE
Cosmos 1302 Rocket 4.3 03:34:06 57° SE 03:34:35 60° ESE 03:39:43 10° NNE
CZ-2D R/B 3.3 03:30:09 10° N 03:33:42 31° NW 03:33:42 31° NW
Cosmos 1975 3.8 03:36:14 44° NNE 03:36:14 44° NNE 03:39:09 10° NNE
Delta 2 Rocket 4.2 03:34:22 29° NW 03:37:50 65° NNE 03:43:53 10° E
Ariane H10 4.0 03:39:10 29° SSE 03:39:10 29° SSE 03:48:55 10° ESE
CENTAUR R/B 3.1 03:31:22 10° NNW 03:39:36 83° ENE 03:47:51 10° SSE
Cosmos 1500 4.0 03:48:19 45° ESE 03:48:38 46° E 03:52:21 10° NNE
Cosmos 2369 Rocket 4.2 03:47:32 10° SSE 03:51:55 23° ESE 03:56:18 10° NE
Cosmos 2016 Rocket 3.9 03:49:51 41° S 03:52:18 87° W 03:58:37 10° N
OAO 2 Rocket 3.5 03:57:30 53° S 03:57:30 53° S 04:01:50 10° SE
Cosmos 2098 Rocket 4.0 03:58:25 24° ESE 03:59:14 28° E 04:02:12 10° NNE
PAYLOAD B 4.3 03:57:35 10° N 04:03:04 59° WNW 04:04:32 44° SW
Cosmos 1725 Rocket 4.1 04:01:50 19° S 04:06:32 78° E 04:12:47 10° N
Cosmos 614 Rocket 4.0 04:05:15 10° NNW 04:10:14 54° WSW 04:11:51 38° SSW
Okean-O 2.8 04:07:40 10° NNE 04:12:04 70° E 04:14:31 26° S
Delta 168 4.0 04:13:57 37° SW 04:16:09 63° SSE 04:23:59 10° ENE
CZ-4B DEB 4.5 04:11:38 10° N 04:16:58 49° WNW 04:19:05 33° SW
Resurs 1-4 Rocket 4.2 04:15:39 10° NW 04:16:22 11° WNW 04:16:22 11° WNW
Cosmos 2285 Rocket 4.0 04:14:43 32° SW 04:17:36 60° WNW 04:23:48 10° N
GPS 2-15 Rocket1 3.3 04:15:40 29° WNW 04:18:03 70° N 04:22:53 10° E
ATLAS 5 CENTAUR R/B 3.0 04:11:57 10° NNW 04:18:11 61° ENE 04:24:38 10° SE
Cosmos 1602 Rocket 3.4 04:14:22 10° N 04:18:40 67° W 04:20:55 27° S
CSL-04 DEB 4.3 04:18:03 10° N 04:22:05 65° WNW 04:23:30 37° SW
Okean O Rocket 3.1 04:18:53 10° NNW 04:21:50 21° WNW 04:21:50 21° WNW
Cosmos 2084 3.4 04:25:01 40° WSW 04:25:59 52° WNW 04:29:45 10° NNE
Thor Agena Rocket 3.5 04:21:43 10° SSE 04:26:57 85° WSW 04:32:07 10° NNW
CCE 1 Rocket 3.8 04:27:09 33° SW 04:28:57 72° SSE 04:34:56 10° ENE
GPS 2-18 Rocket1 3.0 04:28:44 40° SW 04:29:54 65° SSE 04:33:36 10° E
OTV 4 0.3 04:29:34 26° NW 04:31:03 83° NE 04:33:58 10° SE
Tiangong 1 1.1 04:31:57 48° WSW 04:32:09 49° SW 04:35:07 10° SSE
Hubble Space Telescope 1.4 04:31:37 32° SW 04:32:10 33° SSW 04:35:56 10° SE
CZ-2C R/B 4.1 04:29:39 20° SSW 04:32:35 43° W 04:37:05 10° NNW
CZ-4B R/B 4.2 04:28:26 10° NNW 04:33:13 29° WNW 04:35:24 22° WSW
Cosmos 2082 Rocket 2.4 04:30:19 10° NNW 04:36:01 76° ENE 04:41:40 10° SSE
Meteor 1-31 Rocket 4.0 04:32:17 10° NNE 04:36:03 42° E 04:39:47 10° S
Cosmos 1626 Rocket 4.1 04:32:39 10° NNW 04:36:42 37° W 04:39:02 21° SW
ASC 2 Rocket 4.3 04:33:03 10° WNW 04:37:06 35° N 04:40:48 10° ENE
Cosmos 1943 Rocket 4.5 04:33:30 10° SSE 04:37:28 21° ESE 04:41:27 10° NE
Palapa B4 Rocket 3.5 04:36:17 20° W 04:39:19 74° N 04:45:51 10° E
ADEOS II 2.0 04:35:37 10° N 04:40:53 85° WNW 04:46:09 10° SSW
PSLV R/B 3.8 04:40:33 10° N 04:44:35 47° WNW 04:47:35 17° SW
SL-8 R/B 4.3 04:48:59 18° WSW 04:52:09 43° NW 04:56:42 10° NNE
Ariane Rocket 3.7 04:48:11 10° NNE 04:53:08 55° ESE 04:58:04 10° S
Centaur AC-125 4.3 04:50:42 10° WNW 04:54:25 58° NNE 05:11:14 10° ESE
USA 234 4.2 04:50:02 10° S 04:54:49 22° WSW 04:59:37 10° WNW
Cosmos 2228 3.3 04:52:26 10° S 04:56:48 72° E 05:01:10 10° N
Cosmos 1606 Rocket 4.2 04:53:55 13° SSW 04:57:32 36° W 05:01:36 10° NNW
Cosmos 1066 Rocket 4.1 04:57:04 10° NNW 05:02:24 64° W 05:07:40 10° S
Delta 198 3.4 05:02:27 14° SW 05:05:23 49° SSE 05:08:55 10° E
Meteor 2-9 Rocket 4.2 05:03:55 10° S 05:09:26 77° W 05:15:08 10° N
GPS 2-17 Rocket1 3.0 05:06:45 10° W 05:11:09 83° N 05:15:40 10° ENE
Atlas Centaur 2 3.4 05:03:40 10° WSW 05:12:09 65° NNW 05:20:04 10° ENE
Tsikada Rocket 4.2 05:08:50 10° NNW 05:14:44 49° W 05:20:42 10° SSW
Meteor 1-21 4.3 05:10:57 10° N 05:16:33 88° E 05:22:08 10° S
Cosmos 1833 Rocket 2.8 05:13:30 10° NNW 05:18:54 51° WSW 05:24:19 10° S
Cosmos 1346 Rocket 4.3 05:16:12 10° NW 05:19:01 19° W 05:21:48 10° SW
Cosmos 1666 3.3 05:15:55 10° SSW 05:19:34 39° W 05:23:13 10° NNW
Cosmos 1503 Rocket 4.4 05:15:03 10° N 05:20:12 69° ENE 05:25:22 10° SSE
Cosmos 1953 Rocket 3.6 05:16:00 10° NNW 05:20:15 59° W 05:24:29 10° S
H-10 deb 4.3 05:18:47 10° W 05:42:28 40° SSW 05:47:00 10° SE
